H1 CPF 1 NER 2013 5 5 9 6251 glonass114 H2 0806703 9114 33468 2013 5 5 0 0 0 2013 5 8 23 45 0 900 1 1 0 0 0 H9 10 0 56417 0.00000 0 -25054229.612 -3859401.700 2901968.217 10 0 56417 900.00000 0 -25233107.977 -3771397.102 -289593.988 10 0 56417 1800.00000 0 -25014942.156 -3628893.141 -3475533.731 10 0 56417 2700.00000 0 -24399423.378 -3486254.474 -6594003.583 10 0 56417 3600.00000 0 -23399349.221 -3397027.118 -9584460.800 10 0 56417 4500.00000 0 -22040158.526 -3411435.728 -12388842.457 10 0 56417 5400.00000 0 -20358955.485 -3574025.561 -14952692.461 10 0 56417 6300.00000 0 -18403063.166 -3921549.404 -17226218.497 10 0 56417 7200.00000 0 -16228166.709 -4481189.299 -19165258.361 10 0 56417 8100.00000 0 -13896123.384 -5269188.828 -20732137.096 10 0 56417 9000.00000 0 -11472530.435 -6289954.487 -21896398.549 10 0 56417 9900.00000 0 -9024151.744 -7535664.956 -22635397.307 10 0 56417 10800.00000 0 -6616309.964 -8986405.857 -22934739.809 10 0 56417 11700.00000 0 -4310352.101 -10610825.636 -22788566.171 10 0 56417 12600.00000 0 -2161293.496 -12367286.293 -22199667.200 10 0 56417 13500.00000 0 -215737.599 -14205462.080 -21179434.179 10 0 56417 14400.00000 0 1489842.541 -16068320.386 -19747642.008 10 0 56417 15300.00000 0 2930390.114 -17894402.823 -17932069.458 10 0 56417 16200.00000 0 4093064.800 -19620311.724 -15767963.350 10 0 56417 17100.00000 0 4977524.888 -21183298.442 -13297356.517 10 0 56417 18000.00000 0 5595680.252 -22523845.067 -10568252.405 10 0 56417 18900.00000 0 5970927.549 -23588131.157 -7633691.835 10 0 56417 19800.00000 0 6136900.859 -24330281.758 -4550720.023 10 0 56417 20700.00000 0 6135791.433 -24714301.632 -1379274.157 10 0 56417 21600.00000 0 6016308.648 -24715613.935 1818986.458 10 0 56417 22500.00000 0 5831369.503 -24322138.200 4981884.349 10 0 56417 23400.00000 0 5635615.475 -23534861.886 8047937.715 10 0 56417 24300.00000 0 5482862.899 -22367881.203 10957559.911 10 0 56417 25200.00000 0 5423595.721 -20847909.360 13654220.638 10 0 56417 26100.00000 0 5502607.527 -19013272.884 16085545.794 10 0 56417 27000.00000 0 5756893.225 -16912438.216 18204334.429 10 0 56417 27900.00000 0 6213879.993 -14602130.333 19969473.160 10 0 56417 28800.00000 0 6890072.533 -12145122.185 21346730.534 10 0 56417 29700.00000 0 7790170.080 -9607787.132 22309416.505 10 0 56417 30600.00000 0 8906692.701 -7057516.116 22838894.875 10 0 56417 31500.00000 0 10220132.923 -4560106.759 22924939.404 10 0 56417 32400.00000 0 11699626.832 -2177232.212 22565927.373 10 0 56417 33300.00000 0 13304117.033 35905.906 21768867.294 10 0 56417 34200.00000 0 14983959.402 2032643.960 20549260.552 10 0 56417 35100.00000 0 16682907.045 3776557.488 18930799.754 10 0 56417 36000.00000 0 18340389.154 5242727.688 16944909.471 10 0 56417 36900.00000 0 19893989.998 6418521.750 14630138.043 10 0 56417 37800.00000 0 21282024.855 7303855.863 12031411.820 10 0 56417 38700.00000 0 22446105.426 7910931.247 9199165.846 10 0 56417 39600.00000 0 23333587.420 8263455.400 6188367.529 10 0 56417 40500.00000 0 23899797.792 8395382.414 3057451.913 10 0 56417 41400.00000 0 24109948.054 8349226.270 -132810.981 10 0 56417 42300.00000 0 23940653.072 8174018.982 -3320494.700 10 0 56417 43200.00000 0 23380991.230 7923000.428 -6443717.880 10 0 56417 44100.00000 0 22433060.913 7651138.006 -9441845.276 10 0 56417 45000.00000 0 21112009.434 7412581.388 -12256664.721 10 0 56417 45900.00000 0 19445532.563 7258160.384 -14833517.071 10 0 56417 46800.00000 0 17472864.984 7233032.065 -17122357.133 10 0 56417 47700.00000 0 15243303.293 7374576.944 -19078724.963 10 0 56417 48600.00000 0 12814322.609 7710633.476 -20664608.832 10 0 56417 49500.00000 0 10249364.694 8258145.938 -21849183.347 10 0 56417 50400.00000 0 7615389.168 9022283.294 -22609408.585 10 0 56417 51300.00000 0 4980289.086 9996066.971 -22930478.837 10 0 56417 52200.00000 0 2410277.654 11160524.148 -22806112.401 10 0 56417 53100.00000 0 -32645.824 12485361.123 -22238676.741 10 0 56417 54000.00000 0 -2293046.172 13930129.566 -21239146.441 10 0 56417 54900.00000 0 -4324121.692 15445837.794 -19826894.391 10 0 56417 55800.00000 0 -6089407.131 16976940.334 -18029319.839 10 0 56417 56700.00000 0 -7564040.086 18463623.065 -15881319.944 10 0 56417 57600.00000 0 -8735538.775 19844288.539 -13424614.570 10 0 56417 58500.00000 0 -9604059.419 21058137.221 -10706936.974 10 0 56417 59400.00000 0 -10182123.484 22047736.306 -7781105.899 10 0 56417 60300.00000 0 -10493827.194 22761467.684 -4703996.938 10 0 56417 61200.00000 0 -10573567.582 23155751.431 -1535433.419 10 0 56417 62100.00000 0 -10464340.053 23196950.809 1662981.207 10 0 56417 63000.00000 0 -10215680.411 22862877.694 4829066.249 10 0 56417 63900.00000 0 -9881339.535 22143834.526 7901277.734 10 0 56417 64800.00000 0 -9516790.131 21043148.482 10819909.126 10 0 56417 65700.00000 0 -9176671.995 19577174.824 13528254.923 10 0 56417 66600.00000 0 -8912284.657 17774769.099 15973713.943 10 0 56417 67500.00000 0 -8769234.072 15676250.078 18108810.751 10 0 56417 68400.00000 0 -8785333.208 13331896.761 19892115.417 10 0 56417 69300.00000 0 -8988845.410 10800042.151 21289044.037 10 0 56417 70200.00000 0 -9397144.757 8144843.177 22272525.023 10 0 56417 71100.00000 0 -10015849.896 5433819.292 22823518.914 10 0 56417 72000.00000 0 -10838467.861 2735261.803 22931382.255 10 0 56417 72900.00000 0 -11846562.957 115620.885 22594069.181 10 0 56417 73800.00000 0 -13010443.867 -2363022.055 21818167.276 10 0 56417 74700.00000 0 -14290340.452 -4645292.630 20618767.323 10 0 56417 75600.00000 0 -15638021.341 -6684576.440 19019169.583 10 0 56417 76500.00000 0 -16998784.978 -8444702.682 17050432.138 10 0 56417 77400.00000 0 -18313741.162 -9901189.601 14750769.827 10 0 56417 78300.00000 0 -19522287.828 -11042001.231 12164814.995 10 0 56417 79200.00000 0 -20564679.558 -11867785.127 9342753.947 10 0 56417 80100.00000 0 -21384580.179 -12391582.340 6339355.519 10 0 56417 81000.00000 0 -21931492.292 -12638022.903 3212910.264 10 0 56417 81900.00000 0 -22162961.517 -12642041.686 24100.668 10 0 56417 82800.00000 0 -22046462.443 -12447169.437 -3165175.681 10 0 56417 83700.00000 0 -21560886.544 -12103471.843 -6293007.022 10 0 56417 84600.00000 0 -20697568.875 -11665224.120 -9298669.061 10 0 56417 85500.00000 0 -19460809.718 -11188419.817 -12123803.669 10 0 56418 0.00000 0 -17867868.502 -10728219.400 -14713551.641 10 0 56418 900.00000 0 -15948429.018 -10336446.950 -17017617.721 10 0 56418 1800.00000 0 -13743558.445 -10059240.133 -18991246.478 10 0 56418 2700.00000 0 -11304201.324 -9934954.324 -20596091.179 10 0 56418 3600.00000 0 -8689271.712 -9992407.937 -21800958.375 10 0 56418 4500.00000 0 -5963421.501 -10249544.407 -22582414.140 10 0 56418 5400.00000 0 -3194577.139 -10712567.100 -22925240.462 10 0 56418 6300.00000 0 -451346.262 -11375584.242 -22822733.016 10 0 56418 7200.00000 0 2199598.684 -12220779.461 -22276834.533 10 0 56418 8100.00000 0 4696051.917 -13219101.499 -21298101.002 10 0 56418 9000.00000 0 6982616.436 -14331444.926 -19905501.011 10 0 56418 9900.00000 0 9012759.964 -15510272.940 -18126051.663 10 0 56418 10800.00000 0 10750499.838 -16701614.691 -15994297.586 10 0 56418 11700.00000 0 12171647.303 -17847353.595 -13551642.602 10 0 56418 12600.00000 0 13264559.880 -18887710.550 -10845546.605 10 0 56418 13500.00000 0 14030371.216 -19763817.546 -7928602.984 10 0 56418 14400.00000 0 14482689.629 -20420272.926 -4857514.401 10 0 56418 15300.00000 0 14646778.999 -20807570.120 -1691987.081 10 0 56418 16200.00000 0 14558257.551 -20884296.730 1506434.516 10 0 56418 17100.00000 0 14261370.540 -20619010.449 4675569.449 10 0 56418 18000.00000 0 13806910.973 -19991712.055 7753814.254 10 0 56418 18900.00000 0 13249877.245 -18994852.585 10681344.879 10 0 56418 19800.00000 0 12646967.751 -17633831.652 13401282.627 10 0 56418 20700.00000 0 12054019.165 -15926965.425 15860800.851 10 0 56418 21600.00000 0 11523497.273 -13904925.103 18012150.817 10 0 56418 22500.00000 0 11102146.734 -11609669.039 19813586.823 10 0 56418 23400.00000 0 10828899.083 -9092912.865 21230172.864 10 0 56418 24300.00000 0 10733127.158 -6414201.110 22234455.766 10 0 56418 25200.00000 0 10833319.297 -3638660.192 22806992.377 10 0 56418 26100.00000 0 11136228.841 -834525.809 22936721.247 10 0 56418 27000.00000 0 11636534.476 1929453.223 22621172.274 10 0 56418 27900.00000 0 12317025.507 4586627.756 21866510.751 10 0 56418 28800.00000 0 13149304.237 7074970.127 20687415.272 10 0 56418 29700.00000 0 14094976.011 9339401.450 19106791.978 10 0 56418 30600.00000 0 15107277.179 11333828.889 17155330.536 10 0 56418 31500.00000 0 16133072.853 13022809.331 14870910.229 10 0 56418 32400.00000 0 17115140.851 14382771.454 12297867.234 10 0 56418 33300.00000 0 17994646.105 15402746.413 9486136.861 10 0 56418 34200.00000 0 18713701.637 16084577.701 6490287.021 10 0 56418 35100.00000 0 19217908.402 16442602.505 3368461.366 10 0 56418 36000.00000 0 19458766.959 16502818.892 181252.389 10 0 56418 36900.00000 0 19395859.123 16301574.656 -3009473.613 10 0 56418 37800.00000 0 18998707.236 15883833.797 -6141776.844 10 0 56418 38700.00000 0 18248232.147 15301094.270 -9154846.171 10 0 56418 39600.00000 0 17137747.738 14609045.307 -11990179.528 10 0 56418 40500.00000 0 15673449.300 13865063.528 -14592719.523 10 0 56418 41400.00000 0 13874374.160 13125653.737 -16911922.169 10 0 56418 42300.00000 0 11771835.189 12443942.548 -18902737.907 10 0 56418 43200.00000 0 9408349.732 11867330.615 -20526486.057 10 0 56418 44100.00000 0 6836107.518 11435402.480 -21751605.945 10 0 56418 45000.00000 0 4115040.416 11178182.157 -22554270.290 10 0 56418 45900.00000 0 1310573.290 11114807.979 -22918849.207 10 0 56418 46800.00000 0 -1508851.546 11252682.648 -22838215.952 10 0 56418 47700.00000 0 -4274374.229 11587134.500 -22313888.440 10 0 56418 48600.00000 0 -6919334.496 12101604.590 -21356003.660 10 0 56418 49500.00000 0 -9381798.133 12768352.154 -19983125.122 10 0 56418 50400.00000 0 -11606888.286 13549649.215 -18221886.640 10 0 56418 51300.00000 0 -13548825.294 14399414.470 -16106478.824 10 0 56418 52200.00000 0 -15172590.608 15265217.966 -13677987.660 10 0 56418 53100.00000 0 -16455145.924 16090572.250 -10983597.646 10 0 56418 54000.00000 0 -17386157.227 16817413.381 -8075674.635 10 0 56418 54900.00000 0 -17968194.053 17388666.784 -5010746.086 10 0 56418 55800.00000 0 -18216396.440 17750789.213 -1848398.785 10 0 56418 56700.00000 0 -18157624.433 17856178.678 1349884.168 10 0 56418 57600.00000 0 -17829127.040 17665349.852 4521923.949 10 0 56418 58500.00000 0 -17276787.833 17148782.187 7606059.998 10 0 56418 59400.00000 0 -16553022.298 16288361.952 10542353.147 10 0 56418 60300.00000 0 -15714416.720 15078356.543 13273753.859 10 0 56418 61200.00000 0 -14819209.125 13525879.257 15747212.356 10 0 56418 62100.00000 0 -13924719.300 11650824.382 17914708.854 10 0 56418 63000.00000 0 -13084836.710 9485274.666 19734183.996 10 0 56418 63900.00000 0 -12347672.365 7072405.490 21170351.606 10 0 56418 64800.00000 0 -11753473.427 4464930.957 22195378.613 10 0 56418 65700.00000 0 -11332887.967 1723156.087 22789419.563 10 0 56418 66600.00000 0 -11105652.387 -1087284.360 22940996.047 10 0 56418 67500.00000 0 -11079756.091 -3897907.204 22647214.373 10 0 56418 68400.00000 0 -11251117.953 -6639980.104 21913817.754 10 0 56418 69300.00000 0 -11603787.695 -9247131.699 20755072.335 10 0 56418 70200.00000 0 -12110663.368 -11657865.355 19193489.395 10 0 56418 71100.00000 0 -12734694.587 -13817873.176 17259388.973 10 0 56418 72000.00000 0 -13430520.896 -15682055.138 14990313.110 10 0 56418 72900.00000 0 -14146476.384 -17216160.408 12430299.719 10 0 56418 73800.00000 0 -14826876.289 -18397983.526 9629030.639 10 0 56418 74700.00000 0 -15414489.364 -19218066.414 6640870.094 10 0 56418 75600.00000 0 -15853091.837 -19679877.854 3523811.838 10 0 56418 76500.00000 0 -16089995.159 -19799463.744 338355.204 10 0 56418 77400.00000 0 -16078440.681 -19604583.567 -2853668.085 10 0 56418 78300.00000 0 -15779759.811 -19133370.070 -5990293.552 10 0 56418 79200.00000 0 -15165207.946 -18432569.140 -9010626.603 10 0 56418 80100.00000 0 -14217394.105 -17555434.444 -11856024.567 10 0 56418 81000.00000 0 -12931245.140 -16559365.912 -14471235.051 10 0 56418 81900.00000 0 -11314462.849 -15503391.790 -16805468.454 10 0 56418 82800.00000 0 -9387453.659 -14445600.453 -18813383.762 10 0 56418 83700.00000 0 -7182732.514 -13440630.148 -20455968.638 10 0 56418 84600.00000 0 -4743824.558 -12537322.240 -21701296.957 10 0 56418 85500.00000 0 -2123709.215 -11776636.567 -22525149.250 10 0 56419 0.00000 0 617129.779 -11189916.364 -22911484.304 10 0 56419 900.00000 0 3412968.680 -10797575.787 -22852752.859 10 0 56419 1800.00000 0 6195328.755 -10608264.335 -22350047.332 10 0 56419 2700.00000 0 8895580.271 -10618544.657 -21413084.472 10 0 56419 3600.00000 0 11447557.941 -10813095.744 -20060021.016 10 0 56419 4500.00000 0 13790079.584 -11165434.193 -18317105.379 10 0 56419 5400.00000 0 15869263.911 -11639122.737 -16218171.657 10 0 56419 6300.00000 0 17640551.399 -12189415.364 -13803985.187 10 0 56419 7200.00000 0 19070344.287 -12765269.610 -11121451.952 10 0 56419 8100.00000 0 20137197.544 -13311640.913 -8222706.875 10 0 56419 9000.00000 0 20832511.607 -13771961.867 -5164098.614 10 0 56419 9900.00000 0 21160698.155 -14090701.029 -2005090.817 10 0 56419 10800.00000 0 21138812.744 -14215892.352 1192898.487 10 0 56419 11700.00000 0 20795670.639 -14101527.573 4367696.179 10 0 56419 12600.00000 0 20170483.916 -13709709.436 7457587.943 10 0 56419 13500.00000 0 19311078.296 -13012473.892 10402522.472 10 0 56419 14400.00000 0 18271765.849 -11993203.392 13145281.949 10 0 56419 15300.00000 0 17110964.085 -10647570.840 15632595.520 10 0 56419 16200.00000 0 15888662.520 -8983973.651 17816173.912 10 0 56419 17100.00000 0 14663843.890 -7023438.892 19653645.153 10 0 56419 18000.00000 0 13491968.755 -4799002.853 21109373.468 10 0 56419 18900.00000 0 12422629.185 -2354590.262 22155145.990 10 0 56419 19800.00000 0 11497469.715 256560.778 22770714.649 10 0 56419 20700.00000 0 10748462.311 2973863.153 22944183.368 10 0 56419 21600.00000 0 10196606.927 5731653.515 22672233.784 10 0 56419 22500.00000 0 9851111.356 8461679.864 21960185.623 10 0 56419 23400.00000 0 9709083.937 11095701.470 20821890.882 10 0 56419 24300.00000 0 9755751.263 13568094.156 19279464.025 10 0 56419 25200.00000 0 9965191.109 15818353.707 17362853.282 10 0 56419 26100.00000 0 10301549.331 17793394.267 15109261.109 10 0 56419 27000.00000 0 10720689.213 19449547.024 12562424.650 10 0 56419 27900.00000 0 11172203.640 20754176.809 9771769.661 10 0 56419 28800.00000 0 11601705.174 21686849.905 6791453.965 10 0 56419 29700.00000 0 11953297.328 22240005.026 3679318.647 10 0 56419 30600.00000 0 12172122.576 22419100.060 495767.107 10 0 56419 31500.00000 0 12206879.265 22242229.018 -2697406.234 10 0 56419 32400.00000 0 12012200.735 21739225.835 -5838214.812 10 0 56419 33300.00000 0 11550795.641 20950293.155 -8865682.975 10 0 56419 34200.00000 0 10795258.450 19924214.150 -11721029.594 10 0 56419 35100.00000 0 9729472.860 18716222.922 -14348809.126 10 0 56419 36000.00000 0 8349547.982 17385623.215 -16697987.907 10 0 56419 36900.00000 0 6664246.717 15993255.730 -18722934.711 10 0 56419 37800.00000 0 4694887.037 14598920.441 -20384306.506 10 0 56419 38700.00000 0 2474718.830 13258862.075 -21649812.420 10 0 56419 39600.00000 0 47800.989 12023424.132 -22494841.269 10 0 56419 40500.00000 0 -2532575.841 10934969.589 -22902940.717 10 0 56419 41400.00000 0 -5205856.569 10026155.185 -22866138.925 10 0 56419 42300.00000 0 -7906498.257 9318631.329 -22385102.412 10 0 56419 43200.00000 0 -10566462.525 8822221.881 -21469126.964 10 0 56419 44100.00000 0 -13117821.041 8534617.868 -20135961.412 10 0 56419 45000.00000 0 -15495366.411 8441597.800 -18411467.259 10 0 56419 45900.00000 0 -17639120.414 8517765.056 -16329120.257 10 0 56419 46800.00000 0 -19496635.495 8727771.024 -13929362.990 10 0 56419 47700.00000 0 -21024993.688 9027972.220 -11258820.626 10 0 56419 48600.00000 0 -22192419.809 9368451.051 -8369394.783 10 0 56419 49500.00000 0 -22979441.595 9695314.438 -5317252.923 10 0 56419 50400.00000 0 -23379548.309 9953172.477 -2161733.144 10 0 56419 51300.00000 0 -23399320.752 10087691.580 1035813.922 10 0 56419 52200.00000 0 -23058027.550 10048113.104 4213223.153 10 0 56419 53100.00000 0 -22386705.491 9789630.002 7308728.743 10 0 56419 54000.00000 0 -21426763.501 9275520.088 10262169.472 10 0 56419 54900.00000 0 -20228169.750 8478944.660 13016161.431 10 0 56419 55800.00000 0 -18847299.053 7384335.711 15517214.811 10 0 56419 56700.00000 0 -17344531.901 5988312.343 17716772.858 10 0 56419 57600.00000 0 -15781706.558 4300087.012 19572152.837 10 0 56419 58500.00000 0 -14219531.606 2341343.779 21047370.995 10 0 56419 59400.00000 0 -12715067.479 145592.914 22113836.035 10 0 56419 60300.00000 0 -11319382.269 -2242971.994 22750898.314 10 0 56419 61200.00000 0 -10075479.461 -4771067.430 22946244.801 10 0 56419 62100.00000 0 -9016583.506 -7378298.346 22696132.829 10 0 56419 63000.00000 0 -8164854.009 -9999440.131 22005458.632 10 0 56419 63900.00000 0 -7530581.325 -12566930.100 20887659.693 10 0 56419 64800.00000 0 -7111896.166 -15013465.908 19364452.929 10 0 56419 65700.00000 0 -6895004.372 -17274603.824 17465413.666 10 0 56419 66600.00000 0 -6854936.193 -19291249.576 15227403.326 10 0 56419 67500.00000 0 -6956777.819 -21011938.941 12693856.508 10 0 56419 68400.00000 0 -7157332.851 -22394813.766 9913940.816 10 0 56419 69300.00000 0 -7407143.267 -23409211.537 6941605.359 10 0 56419 70200.00000 0 -7652784.354 -24036802.654 3834536.045 10 0 56419 71100.00000 0 -7839336.401 -24272228.280 653037.664 10 0 56419 72000.00000 0 -7912928.424 -24123212.405 -2541135.470 10 0 56419 72900.00000 0 -7823246.060 -23610143.811 -5685977.621 10 0 56419 73800.00000 0 -7525897.088 -22765145.761 -8720435.083 10 0 56419 74700.00000 0 -6984534.071 -21630672.728 -11585591.318 10 0 56419 75600.00000 0 -6172643.679 -20257693.336 -14225810.671 10 0 56419 76500.00000 0 -5074926.270 -18703535.892 -16589818.357 10 0 56419 77400.00000 0 -3688206.566 -17029487.060 -18631695.694 10 0 56419 78300.00000 0 -2021835.846 -15298244.310 -20311771.414 10 0 56419 79200.00000 0 -97567.356 -13571328.810 -21597391.962 10 0 56419 80100.00000 0 2051091.234 -11906566.906 -22463556.011 10 0 56419 81000.00000 0 4380022.815 -10355745.260 -22893401.155 10 0 56419 81900.00000 0 6836096.966 -8962537.359 -22878533.476 10 0 56419 82800.00000 0 9359151.995 -7760787.702 -22419193.577 10 0 56419 83700.00000 0 11884281.612 -6773224.975 -21524255.733 10 0 56419 84600.00000 0 14344332.135 -6010657.530 -20211059.864 10 0 56419 85500.00000 0 16672506.966 -5471684.442 -18505079.119 10 0 56420 0.00000 0 18804970.505 -5142933.673 -16439429.069 10 0 56420 900.00000 0 20683343.288 -4999816.913 -14054227.119 10 0 56420 1800.00000 0 22256984.595 -5007768.516 -11395814.960 10 0 56420 2700.00000 0 23484966.519 -5123916.165 -8515857.771 10 0 56420 3600.00000 0 24337657.977 -5299111.575 -5470338.349 10 0 56420 4500.00000 0 24797851.287 -5480235.034 -2318465.568 10 0 56420 5400.00000 0 24861384.625 -5612675.289 878481.165 10 0 56420 6300.00000 0 24537234.238 -5642878.891 4058348.533 10 0 56420 7200.00000 0 23847073.065 -5520860.154 7159322.858 10 0 56420 8100.00000 0 22824314.737 -5202564.467 10121136.356 10 0 56420 9000.00000 0 21512683.861 -4651983.999 12886241.998 10 0 56420 9900.00000 0 19964373.365 -3842935.529 15400933.534 10 0 56420 10800.00000 0 18237866.927 -2760424.388 17616388.753 10 0 56420 11700.00000 0 16395518.453 -1401536.285 19489615.713 10 0 56420 12600.00000 0 14500990.456 224181.271 20984283.763 10 0 56420 13500.00000 0 12616658.729 2094864.719 22071423.799 10 0 56420 14400.00000 0 10801091.628 4177002.047 22729984.806 10 0 56420 15300.00000 0 9106708.905 6426595.083 22947236.571 10 0 56420 16200.00000 0 7577717.075 8790768.799 22719011.475 10 0 56420 17100.00000 0 6248406.493 11209761.460 22049781.216 10 0 56420 18000.00000 0 5141880.169 13619213.562 20952567.324 10 0 56420 18900.00000 0 4269266.134 15952661.203 19448687.370 10 0 56420 19800.00000 0 3629445.071 18144131.028 17567341.649 10 0 56420 20700.00000 0 3209303.465 20130729.413 15345048.141 10 0 56420 21600.00000 0 2984500.580 21855118.799 12824936.265 10 0 56420 22500.00000 0 2920716.161 23267778.495 10055912.652 10 0 56420 23400.00000 0 2975325.643 24328955.974 7091714.740 10 0 56420 24300.00000 0 3099431.661 25010227.523 3989870.198 10 0 56420 25200.00000 0 3240165.663 25295603.155 810582.132 10 0 56420 26100.00000 0 3343161.958 25182129.671 -2384438.300 10 0 56420 27000.00000 0 3355099.206 24679966.700 -5533169.120 10 0 56420 27900.00000 0 3226201.411 23811932.619 -8574481.289 10 0 56420 28800.00000 0 2912592.139 22612539.430 -11449325.330 10 0 56420 29700.00000 0 2378401.830 21126557.108 -14101877.620 10 0 56420 30600.00000 0 1597538.395 19407167.591 -16480624.072 10 0 56420 31500.00000 0 555045.550 17513785.743 -18539360.022 10 0 56420 32400.00000 0 -752009.473 15509638.389 -20238087.115 10 0 56420 33300.00000 0 -2314157.386 13459202.514 -21543789.952 10 0 56420 34200.00000 0 -4109674.712 11425609.461 -22431077.610 10 0 56420 35100.00000 0 -6105253.340 9468123.181 -22882677.858 10 0 56420 36000.00000 0 -8257165.234 7639797.362 -22889774.609 10 0 56420 36900.00000 0 -10512875.050 5985408.724 -22452182.090 10 0 56420 37800.00000 0 -12813034.689 4539752.206 -21578352.217 10 0 56420 38700.00000 0 -15093777.791 3326368.537 -20285214.727 10 0 56420 39600.00000 0 -17289219.324 2356756.835 -18597852.733 10 0 56420 40500.00000 0 -19334056.732 1630104.421 -16549019.486 10 0 56420 41400.00000 0 -21166164.441 1133544.477 -14178505.089 10 0 56420 42300.00000 0 -22729073.482 842929.969 -11532365.110 10 0 56420 43200.00000 0 -23974232.555 724090.450 -8662025.659 10 0 56420 44100.00000 0 -24862955.598 734517.942 -5623282.195 10 0 56420 45000.00000 0 -25367974.032 825409.806 -2475211.719 10 0 56420 45900.00000 0 -25474528.237 943981.291 720980.205 10 0 56420 46800.00000 0 -25180952.366 1035948.853 3903154.606 10 0 56420 47700.00000 0 -24498727.957 1048078.139 7009452.438 10 0 56420 48600.00000 0 -23452004.309 930687.694 9979501.770 10 0 56420 49500.00000 0 -22076606.108 640001.466 12755594.748 10 0 56420 50400.00000 0 -20418570.424 140249.708 15283810.849 10 0 56420 51300.00000 0 -18532274.977 -594571.345 17515064.385 10 0 56420 52200.00000 0 -16478236.581 -1579356.007 19406055.923 10 0 56420 53100.00000 0 -14320672.315 -2817019.129 20920109.332 10 0 56420 54000.00000 0 -12124925.488 -4298136.805 22027878.772 10 0 56420 54900.00000 0 -9954863.756 -6001113.550 22707912.551 10 0 56420 55800.00000 0 -7870357.575 -7892869.591 22947063.605 10 0 56420 56700.00000 0 -5924943.372 -9930020.313 22740739.342 10 0 56420 57600.00000 0 -4163767.848 -12060499.385 22092986.563 10 0 56420 58500.00000 0 -2621897.936 -14225558.646 21016410.179 10 0 56420 59400.00000 0 -1323065.599 -16362062.221 19531927.450 10 0 56420 60300.00000 0 -278898.407 -18404980.053 17668362.409 10 0 56420 61200.00000 0 511333.190 -20289977.596 15461888.090 10 0 56420 62100.00000 0 1060442.686 -21955994.277 12955326.970 10 0 56420 63000.00000 0 1392541.000 -23347703.628 10197322.710 10 0 56420 63900.00000 0 1541770.647 -24417752.590 7241398.871 10 0 56420 64800.00000 0 1550614.740 -25128686.563 4144922.527 10 0 56420 65700.00000 0 1467852.795 -25454479.678 967992.589 10 0 56420 66600.00000 0 1346250.197 -25381606.117 -2227725.521 10 0 56420 67500.00000 0 1240079.501 -24909607.442 -5380196.252 10 0 56420 68400.00000 0 1202578.842 -24051131.968 -8428217.954 10 0 56420 69300.00000 0 1283455.414 -22831444.313 -11312610.946 10 0 56420 70200.00000 0 1526540.132 -21287425.480 -13977366.375 10 0 56420 71100.00000 0 1967693.202 -19466105.108 -16370733.501 10 0 56420 72000.00000 0 2633049.761 -17422787.137 -18446224.190 10 0 56420 72900.00000 0 3537680.381 -15218846.980 -20163515.274 10 0 56420 73800.00000 0 4684723.931 -12919291.908 -21489231.470 10 0 56420 74700.00000 0 6065030.317 -10590186.148 -22397593.820 10 0 56420 75600.00000 0 7657329.402 -8296047.611 -22870921.390 10 0 56420 76500.00000 0 9428920.387 -6097324.217 -22899976.594 10 0 56420 77400.00000 0 11336854.116 -4048054.435 -22484147.494 10 0 56420 78300.00000 0 13329560.187 -2193808.860 -21631463.414 10 0 56420 79200.00000 0 15348852.057 -569997.935 -20358443.259 10 0 56420 80100.00000 0 17332227.321 799384.263 -18689779.051 10 0 56420 81000.00000 0 19215367.755 1902528.478 -16657860.288 10 0 56420 81900.00000 0 20934735.122 2740059.659 -14302147.793 10 0 56420 82800.00000 0 22430154.259 3324757.641 -11668408.765 10 0 56420 83700.00000 0 23647275.164 3680761.774 -8807827.528 10 0 56420 84600.00000 0 24539810.789 3842294.012 -5776009.139 10 0 56420 85500.00000 0 25071456.049 3851955.203 -2631895.361 99